WB6DHP Weather Reports


Display with metric or nautical units.
time (UTC)temp
F
wind
direction
speed
MPH
gust
MPH
rain 1hr
in
rain 24hr
in
rain mn
in
humidity
%
barometer
mb
20220518221010 89 293 5.0 12.0 0.00 0.00 0.00 26 1015.5
20220518220010 88 327 5.0 12.0 0.00 0.00 0.00 27 1015.6
20220518215010 88 309 5.0 10.0 0.00 0.00 0.00 27 1015.7
20220518214012 88 295 3.0 12.0 0.00 0.00 0.00 27 1015.8
20220518213010 87 305 2.0 10.0 0.00 0.00 0.00 29 1015.9
20220518212012 86 305 3.0 10.0 0.00 0.00 0.00 29 1016.0
20220518211011 86 305 3.0 9.0 0.00 0.00 0.00 29 1016.2
20220518210009 86 321 3.0 7.0 0.00 0.00 0.00 30 1016.3
20220518205011 85 303 3.0 8.0 0.00 0.00 0.00 30 1016.5
20220518204012 84 307 3.0 9.0 0.00 0.00 0.00 33 1016.5
20220518203009 83 301 3.0 7.0 0.00 0.00 0.00 33 1016.8
20220518202011 83 296 4.0 8.0 0.00 0.00 0.00 34 1016.9
20220518201009 82 279 2.0 9.0 0.00 0.00 0.00 35 1017.1
20220518200010 81 261 2.0 9.0 0.00 0.00 0.00 36 1017.3
20220518195010 81 300 3.0 7.0 0.00 0.00 0.00 36 1017.5
20220518194011 80 319 3.0 9.0 0.00 0.00 0.00 36 1017.5
20220518193011 80 311 3.0 8.0 0.00 0.00 0.00 37 1017.6
20220518192011 79 300 3.0 10.0 0.00 0.00 0.00 36 1017.7
20220518191010 79 319 2.0 9.0 0.00 0.00 0.00 38 1017.8
20220518190010 78 322 5.0 9.0 0.00 0.00 0.00 36 1017.9
20220518185011 78 294 3.0 8.0 0.00 0.00 0.00 39 1017.8
20220518184010 77 291 5.0 8.0 0.00 0.00 0.00 37 1018.0
20220518183012 77 315 3.0 8.0 0.00 0.00 0.00 40 1018.1
20220518182011 75 311 3.0 8.0 0.00 0.00 0.00 45 1018.2
20220518181010 74 281 2.0 3.0 0.00 0.00 0.00 47 1018.1
20220518180011 73 293 2.0 5.0 0.00 0.00 0.00 50 1018.2
20220518175010 72 327 2.0 3.0 0.00 0.00 0.00 52 1018.2
20220518174010 72 289 1.0 3.0 0.00 0.00 0.00 53 1018.2
20220518173011 71 49 0.0 3.0 0.00 0.00 0.00 55 1018.2
20220518172011 69 313 1.0 5.0 0.00 0.00 0.00 58 1018.2
20220518171010 69 111 1.0 3.0 0.00 0.00 0.00 57 1018.3
20220518170010 67 224 0.0 2.0 0.00 0.00 0.00 62 1018.4
20220518165011 65 16 2.0 3.0 0.00 0.00 0.00 64 1018.5
20220518164010 65 184 0.0 3.0 0.00 0.00 0.00 66 1018.6
20220518163010 64 284 1.0 3.0 0.00 0.00 0.00 69 1018.7
20220518162010 63 296 1.0 3.0 0.00 0.00 0.00 69 1018.8
20220518161010 62 4 1.0 2.0 0.00 0.00 0.00 72 1018.8
20220518160010 61 265 1.0 3.0 0.00 0.00 0.00 73 1018.9
20220518155009 62 304 1.0 3.0 0.00 0.00 0.00 72 1018.8
20220518154010 60 25 1.0 3.0 0.00 0.00 0.00 75 1018.8
20220518153011 59 332 2.0 3.0 0.00 0.00 0.00 78 1018.7
20220518152009 59 313 1.0 3.0 0.00 0.00 0.00 76 1018.6
20220518151010 60 264 0.0 0.0 0.00 0.00 0.00 75 1018.6
20220518150009 58 188 0.0 0.0 0.00 0.00 0.00 78 1018.5
20220518145009 57 186 0.0 2.0 0.00 0.00 0.00 81 1018.4
20220518144010 56 186 1.0 2.0 0.00 0.00 0.00 84 1018.3
20220518143011 55 186 0.0 2.0 0.00 0.00 0.00 86 1018.4
20220518142009 55 188 0.0 2.0 0.00 0.00 0.00 87 1018.2
20220518141010 53 205 0.0 0.0 0.00 0.00 0.00 92 1018.2
20220518140010 50 205 0.0 0.0 0.00 0.00 0.00 97 1018.0
20220518135008 47 205 0.0 0.0 0.00 0.00 0.00 99 1018.0
20220518134010 46 205 0.0 0.0 0.00 0.00 0.00 98 1017.9
20220518133009 46 205 0.0 0.0 0.00 0.00 0.00 98 1017.9
20220518132014 46 298 0.0 0.0 0.00 0.00 0.00 98 1017.9
20220518131010 45 298 0.0 0.0 0.00 0.00 0.00 99 1017.8
20220518130010 44 298 0.0 0.0 0.00 0.00 0.00 98 1017.8
20220518125008 44 298 0.0 0.0 0.00 0.00 0.00 97 1017.7
20220518124009 44 298 0.0 0.0 0.00 0.00 0.00 96 1017.6
20220518123009 45 298 0.0 0.0 0.00 0.00 0.00 96 1017.6
20220518122009 45 298 0.0 0.0 0.00 0.00 0.00 95 1017.6
20220518121009 46 298 0.0 0.0 0.00 0.00 0.00 96 1017.6
20220518120009 46 298 0.0 0.0 0.00 0.00 0.00 96 1017.6
20220518115009 45 298 0.0 0.0 0.00 0.00 0.00 96 1017.6
20220518114009 45 298 0.0 0.0 0.00 0.00 0.00 95 1017.7
20220518113010 46 298 0.0 0.0 0.00 0.00 0.00 94 1017.6
20220518112009 46 298 0.0 0.0 0.00 0.00 0.00 94 1017.5
20220518111009 46 298 0.0 0.0 0.00 0.00 0.00 94 1017.6
20220518110009 46 298 0.0 0.0 0.00 0.00 0.00 95 1017.6
20220518105008 46 298 0.0 0.0 0.00 0.00 0.00 95 1017.5
20220518104009 46 298 0.0 0.0 0.00 0.00 0.00 94 1017.4
20220518103010 47 298 0.0 0.0 0.00 0.00 0.00 95 1017.3
20220518102008 47 298 0.0 0.0 0.00 0.00 0.00 95 1017.4
20220518101009 47 298 0.0 0.0 0.00 0.00 0.00 95 1017.5
20220518100009 46 298 0.0 0.0 0.00 0.00 0.00 95 1017.4
20220518095008 47 298 0.0 0.0 0.00 0.00 0.00 93 1017.4
20220518094009 47 298 0.0 0.0 0.00 0.00 0.00 93 1017.5
20220518093009 48 298 0.0 0.0 0.00 0.00 0.00 93 1017.6
20220518092009 48 298 0.0 0.0 0.00 0.00 0.00 93 1017.6
20220518091009 48 298 0.0 0.0 0.00 0.00 0.00 94 1017.5
20220518090011 48 298 0.0 0.0 0.00 0.00 0.00 94 1017.6
20220518085011 48 298 0.0 0.0 0.00 0.00 0.00 94 1017.6
20220518084010 48 298 0.0 0.0 0.00 0.00 0.00 93 1017.7
20220518083010 49 298 0.0 0.0 0.00 0.00 0.00 93 1017.8
20220518082009 49 298 0.0 0.0 0.00 0.00 0.00 91 1017.8
20220518081009 50 298 0.0 0.0 0.00 0.00 0.00 92 1018.0
20220518080009 51 298 0.0 0.0 0.00 0.00 0.00 92 1018.0
20220518075008 51 298 0.0 0.0 0.00 0.00 0.00 94 1018.1
20220518074010 50 298 0.0 0.0 0.00 0.00 0.00 94 1018.1
20220518073009 51 298 0.0 0.0 0.00 0.00 0.00 92 1018.0
20220518072009 51 298 0.0 0.0 0.00 0.00 0.00 91 1017.9
20220518071009 52 298 0.0 0.0 0.00 0.00 0.00 92 1017.9
20220518070008 52 298 0.0 0.0 0.00 0.00 0.00 91 1017.9
20220518065009 52 298 0.0 0.0 0.00 0.00 0.00 90 1018.0
20220518064009 53 298 0.0 0.0 0.00 0.00 0.00 89 1018.0
20220518063010 53 298 0.0 0.0 0.00 0.00 0.00 90 1017.9
20220518062009 53 298 0.0 0.0 0.00 0.00 0.00 89 1017.9
20220518061007 53 298 0.0 0.0 0.00 0.00 0.00 88 1017.9
20220518060009 54 298 0.0 0.0 0.00 0.00 0.00 87 1018.0
20220518055008 54 298 0.0 0.0 0.00 0.00 0.00 87 1017.9
20220518054009 55 298 0.0 0.0 0.00 0.00 0.00 86 1017.9
20220518053009 55 298 0.0 0.0 0.00 0.00 0.00 84 1017.9
20220518052009 56 298 0.0 0.0 0.00 0.00 0.00 84 1017.9
20220518051010 56 298 0.0 0.0 0.00 0.00 0.00 84 1017.7
20220518050009 57 298 0.0 0.0 0.00 0.00 0.00 82 1017.7
20220518045008 57 298 0.0 0.0 0.00 0.00 0.00 82 1017.5
20220518044008 57 310 0.0 0.0 0.00 0.00 0.00 81 1017.4
20220518043010 58 310 0.0 0.0 0.00 0.00 0.00 80 1017.4
20220518042008 58 312 0.0 0.0 0.00 0.00 0.00 79 1017.3
20220518041010 59 312 0.0 2.0 0.00 0.00 0.00 77 1017.1
20220518040009 59 338 0.0 2.0 0.00 0.00 0.00 77 1017.0
20220518035008 60 307 1.0 2.0 0.00 0.00 0.00 77 1016.9
20220518034010 61 313 0.0 1.0 0.00 0.00 0.00 76 1016.9
20220518033011 61 305 0.0 1.0 0.00 0.00 0.00 74 1016.8
20220518032009 62 327 0.0 2.0 0.00 0.00 0.00 73 1016.7
20220518031010 62 294 0.0 2.0 0.00 0.00 0.00 72 1016.7
20220518030010 63 59 0.0 5.0 0.00 0.00 0.00 70 1016.8
20220518025010 64 279 0.0 3.0 0.00 0.00 0.00 69 1016.7
20220518024011 65 302 1.0 7.0 0.00 0.00 0.00 66 1016.7
20220518023011 66 44 1.0 3.0 0.00 0.00 0.00 66 1016.5
20220518022010 66 344 1.0 3.0 0.00 0.00 0.00 65 1016.4
20220518021011 67 269 1.0 3.0 0.00 0.00 0.00 63 1016.2
20220518020009 68 48 1.0 3.0 0.00 0.00 0.00 62 1016.2
20220518015010 69 308 2.0 3.0 0.00 0.00 0.00 61 1016.1
20220518014010 69 73 1.0 6.0 0.00 0.00 0.00 60 1016.1
20220518013010 69 282 2.0 6.0 0.00 0.00 0.00 60 1016.1
20220518012011 69 317 2.0 6.0 0.00 0.00 0.00 60 1016.2
20220518011011 70 307 1.0 6.0 0.00 0.00 0.00 59 1016.2
20220518010010 70 326 2.0 8.0 0.00 0.00 0.00 59 1016.1
20220518005010 70 298 2.0 7.0 0.00 0.00 0.00 58 1016.3
20220518004011 71 326 3.0 9.0 0.00 0.00 0.00 58 1016.3
20220518003010 72 302 3.0 7.0 0.00 0.00 0.00 56 1016.4
20220518002010 72 326 4.0 12.0 0.00 0.00 0.00 56 1016.3
20220518001011 73 324 3.0 9.0 0.00 0.00 0.00 56 1016.1
20220518000010 74 10 4.0 9.0 0.00 0.00 0.00 53 1016.0
20220517235011 74 335 2.0 8.0 0.00 0.00 0.00 54 1016.0
20220517234011 74 300 4.0 10.0 0.00 0.00 0.00 52 1016.1
20220517233011 75 294 5.0 10.0 0.00 0.00 0.00 52 1016.0
20220517232010 76 320 3.0 10.0 0.00 0.00 0.00 51 1015.9
20220517231011 76 328 4.0 10.0 0.00 0.00 0.00 51 1016.1
20220517230010 76 300 3.0 8.0 0.00 0.00 0.00 52 1016.2
20220517225010 75 313 2.0 9.0 0.00 0.00 0.00 54 1016.3
20220517224011 75 298 2.0 5.0 0.00 0.00 0.00 55 1016.4
20220517223011 74 264 3.0 7.0 0.00 0.00 0.00 54 1016.4
20220517222011 74 311 3.0 6.0 0.00 0.00 0.00 55 1016.6